Location: Boussac
(44.2782°N, 2.3665°E)
Time: 20:48:47
(UTC+00:00)

USA 234 - Pass Details

Date: 15 May 2026
Orbit: 1102 x 1106 km, 123.0° (Epoch: 4 January)

Event Time Altitude Azimuth Distance (km) Brightness Sun altitude
Rises 22:41:13 0° 53° (NE) 3,925 6.4 -24.9°
Reaches altitude 10° 22:43:51 10° 60° (ENE) 2,964 5.7 -25.1°
Enters shadow 22:49:36 43° 121° (ESE) 1,514 3.6 -25.3°
